• în Republica Moldova
  • Lista ţărilor
  • Pe 7 zile
  • Temperatura apei
  • Hartă satelitară
  • Meteo pe hartă
  • Widget-uri
  • user-avatar
    Intrare

    Meteo pe oră la Nachiczewan

    Astăzi, 23 Aprilie, Duminică

    Timp Temperatura Precipitaţii Vânt Presiune Umiditate
    00:00 +18°C° 0 mm 2 m/s 688 mmHg 37%
    01:00 +17°C° 0 mm 2 m/s 688 mmHg 38%
    02:00 +17°C° 0 mm 2 m/s 688 mmHg 39%
    03:00 +16°C° 0 mm 2 m/s 687 mmHg 44%
    04:00 +16°C° 0 mm 2 m/s 687 mmHg 44%
    05:00 +16°C° 0 mm 2 m/s 687 mmHg 44%
    06:00 +16°C° 0 mm 2 m/s 687 mmHg 44%
    07:00 +19°C° 0 mm 2 m/s 687 mmHg 38%
    08:00 +21°C° 0 mm 2 m/s 687 mmHg 31%
    09:00 +25°C° 0 mm 3 m/s 687 mmHg 25%
    10:00 +27°C° 0 mm 3 m/s 687 mmHg 22%
    11:00 +28°C° 0 mm 4 m/s 686 mmHg 19%
    12:00 +30°C° 0 mm 5 m/s 686 mmHg 16%
    13:00 +30°C° 0 mm 6 m/s 685 mmHg 16%
    14:00 +30°C° 0 mm 6 m/s 684 mmHg 16%
    15:00 +30°C° 0 mm 6 m/s 684 mmHg 15%
    16:00 +29°C° 0 mm 6 m/s 683 mmHg 18%
    17:00 +28°C° 0 mm 5 m/s 683 mmHg 21%
    18:00 +27°C° 0 mm 4 m/s 683 mmHg 24%
    19:00 +25°C° 0,2 mm 4 m/s 682 mmHg 27%
    20:00 +23°C° 0,2 mm 4 m/s 682 mmHg 31%
    21:00 +21°C° 0,2 mm 3 m/s 682 mmHg 34%
    22:00 +20°C° 0,1 mm 3 m/s 682 mmHg 37%
    23:00 +19°C° 0,1 mm 3 m/s 682 mmHg 40%

    Mâine, 24 Aprilie, Luni

    Timp Temperatura Precipitaţii Vânt Presiune Umiditate
    00:00 +19°C° 0,1 mm 3 m/s 681 mmHg 43%
    01:00 +18°C° 0,1 mm 2 m/s 681 mmHg 46%
    02:00 +17°C° 0,1 mm 2 m/s 681 mmHg 48%
    03:00 +17°C° 0,1 mm 2 m/s 681 mmHg 51%
    04:00 +16°C° 0,1 mm 2 m/s 681 mmHg 53%
    05:00 +16°C° 0,1 mm 2 m/s 681 mmHg 54%
    06:00 +16°C° 0,1 mm 2 m/s 681 mmHg 56%
    07:00 +18°C° 0,1 mm 2 m/s 681 mmHg 50%
    08:00 +19°C° 0,1 mm 2 m/s 681 mmHg 45%
    09:00 +21°C° 0,1 mm 2 m/s 682 mmHg 39%
    10:00 +22°C° 0,2 mm 3 m/s 682 mmHg 35%
    11:00 +24°C° 0,2 mm 3 m/s 682 mmHg 31%
    12:00 +25°C° 0,2 mm 3 m/s 682 mmHg 27%
    13:00 +25°C° 0,3 mm 4 m/s 682 mmHg 26%
    14:00 +25°C° 0,3 mm 4 m/s 682 mmHg 25%
    15:00 +25°C° 0,3 mm 4 m/s 682 mmHg 23%
    16:00 +23°C° 0 mm 4 m/s 682 mmHg 25%
    17:00 +22°C° 0 mm 4 m/s 683 mmHg 26%
    18:00 +21°C° 0 mm 5 m/s 683 mmHg 27%
    19:00 +19°C° 0 mm 4 m/s 684 mmHg 32%
    20:00 +18°C° 0 mm 3 m/s 684 mmHg 36%
    21:00 +16°C° 0 mm 2 m/s 685 mmHg 41%
    22:00 +15°C° 0 mm 2 m/s 685 mmHg 44%
    23:00 +14°C° 0 mm 2 m/s 685 mmHg 47%

    Poimâine, 25 Aprilie, Marţi

    Timp Temperatura Precipitaţii Vânt Presiune Umiditate
    00:00 +14°C° 0 mm 2 m/s 685 mmHg 51%
    01:00 +13°C° 0 mm 2 m/s 685 mmHg 52%
    02:00 +13°C° 0 mm 2 m/s 685 mmHg 53%
    03:00 +12°C° 0 mm 2 m/s 685 mmHg 54%
    04:00 +12°C° 0 mm 2 m/s 685 mmHg 53%
    05:00 +12°C° 0 mm 2 m/s 686 mmHg 52%
    06:00 +12°C° 0 mm 2 m/s 686 mmHg 51%
    07:00 +14°C° 0 mm 1 m/s 686 mmHg 45%
    08:00 +16°C° 0 mm 1 m/s 687 mmHg 38%
    09:00 +18°C° 0 mm 1 m/s 687 mmHg 32%
    10:00 +19°C° 0 mm 1 m/s 687 mmHg 30%
    11:00 +19°C° 0 mm 2 m/s 687 mmHg 27%
    12:00 +20°C° 0 mm 2 m/s 687 mmHg 24%
    13:00 +21°C° 0 mm 2 m/s 687 mmHg 24%
    14:00 +21°C° 0 mm 2 m/s 687 mmHg 23%
    15:00 +23°C° 0 mm 2 m/s 686 mmHg 22%
    16:00 +21°C° 0 mm 3 m/s 687 mmHg 25%
    17:00 +20°C° 0 mm 3 m/s 687 mmHg 28%
    18:00 +19°C° 0 mm 4 m/s 687 mmHg 31%
    19:00 +17°C° 0 mm 3 m/s 688 mmHg 36%
    20:00 +16°C° 0 mm 3 m/s 689 mmHg 41%
    21:00 +14°C° 0 mm 3 m/s 689 mmHg 45%
    22:00 +13°C° 0 mm 3 m/s 690 mmHg 48%
    23:00 +13°C° 0 mm 2 m/s 690 mmHg 50%

    26 Aprilie, Miercuri

    Timp Temperatura Precipitaţii Vânt Presiune Umiditate
    00:00 +12°C° 0 mm 2 m/s 690 mmHg 52%
    01:00 +12°C° 0 mm 2 m/s 690 mmHg 54%
    02:00 +10°C° 0 mm 2 m/s 690 mmHg 55%
    03:00 +9°C° 0 mm 2 m/s 691 mmHg 57%
    04:00 +10°C° 0 mm 1 m/s 691 mmHg 56%
    05:00 +10°C° 0 mm 1 m/s 691 mmHg 56%
    06:00 +10°C° 0 mm 1 m/s 692 mmHg 56%
    07:00 +11°C° 0 mm 1 m/s 692 mmHg 50%
    08:00 +13°C° 0 mm 2 m/s 692 mmHg 45%
    09:00 +14°C° 0 mm 2 m/s 692 mmHg 39%
    10:00 +15°C° 0 mm 2 m/s 692 mmHg 37%
    11:00 +17°C° 0 mm 3 m/s 692 mmHg 35%
    12:00 +18°C° 0 mm 3 m/s 692 mmHg 33%
    13:00 +19°C° 0 mm 3 m/s 692 mmHg 32%
    14:00 +19°C° 0 mm 4 m/s 691 mmHg 31%
    15:00 +20°C° 0 mm 4 m/s 691 mmHg 30%
    16:00 +19°C° 0 mm 4 m/s 691 mmHg 33%
    17:00 +18°C° 0 mm 4 m/s 691 mmHg 35%
    18:00 +17°C° 0 mm 4 m/s 691 mmHg 38%
    19:00 +14°C° 0 mm 3 m/s 692 mmHg 42%
    20:00 +13°C° 0 mm 3 m/s 692 mmHg 46%
    21:00 +13°C° 0 mm 2 m/s 692 mmHg 51%
    22:00 +12°C° 0 mm 2 m/s 692 mmHg 53%
    23:00 +10°C° 0 mm 2 m/s 692 mmHg 55%

    27 Aprilie, Joi

    Timp Temperatura Precipitaţii Vânt Presiune Umiditate
    00:00 +10°C° 0 mm 2 m/s 692 mmHg 57%
    01:00 +9°C° 0 mm 2 m/s 692 mmHg 59%
    02:00 +10°C° 0 mm 1 m/s 692 mmHg 61%
    03:00 +9°C° 0 mm 1 m/s 692 mmHg 62%
    04:00 +9°C° 0 mm 1 m/s 692 mmHg 61%
    05:00 +9°C° 0 mm 1 m/s 692 mmHg 61%
    06:00 +10°C° 0 mm 1 m/s 692 mmHg 60%
    07:00 +11°C° 0 mm 1 m/s 692 mmHg 52%
    08:00 +13°C° 0 mm 1 m/s 692 mmHg 45%
    09:00 +15°C° 0 mm 1 m/s 692 mmHg 37%
    10:00 +16°C° 0 mm 2 m/s 692 mmHg 33%
    11:00 +18°C° 0 mm 2 m/s 691 mmHg 30%
    12:00 +19°C° 0 mm 2 m/s 691 mmHg 26%
    13:00 +20°C° 0 mm 3 m/s 691 mmHg 25%
    14:00 +21°C° 0 mm 3 m/s 690 mmHg 24%
    15:00 +21°C° 0 mm 3 m/s 690 mmHg 24%
    16:00 +20°C° 0 mm 3 m/s 690 mmHg 27%
    17:00 +20°C° 0 mm 3 m/s 690 mmHg 30%
    18:00 +19°C° 0 mm 3 m/s 690 mmHg 34%
    19:00 +17°C° 0 mm 3 m/s 690 mmHg 39%
    20:00 +16°C° 0 mm 3 m/s 691 mmHg 45%
    21:00 +14°C° 0 mm 2 m/s 691 mmHg 50%
    22:00 +13°C° 0 mm 2 m/s 691 mmHg 53%
    23:00 +13°C° 0 mm 2 m/s 691 mmHg 56%

    28 Aprilie, Vineri

    Timp Temperatura Precipitaţii Vânt Presiune Umiditate
    00:00 +12°C° 0 mm 2 m/s 691 mmHg 59%
    01:00 +12°C° 0 mm 2 m/s 690 mmHg 61%
    02:00 +11°C° 0 mm 1 m/s 690 mmHg 63%
    03:00 +11°C° 0 mm 1 m/s 690 mmHg 65%
    04:00 +11°C° 0 mm 1 m/s 690 mmHg 64%
    05:00 +11°C° 0 mm 1 m/s 690 mmHg 64%
    06:00 +11°C° 0 mm 1 m/s 691 mmHg 63%
    07:00 +13°C° 0 mm 1 m/s 691 mmHg 55%
    08:00 +15°C° 0 mm 1 m/s 691 mmHg 48%
    09:00 +18°C° 0 mm 1 m/s 691 mmHg 40%
    10:00 +20°C° 0 mm 1 m/s 691 mmHg 37%
    11:00 +20°C° 0 mm 2 m/s 690 mmHg 33%
    12:00 +21°C° 0 mm 2 m/s 690 mmHg 30%
    13:00 +23°C° 0 mm 2 m/s 690 mmHg 29%
    14:00 +24°C° 0 mm 2 m/s 689 mmHg 27%
    15:00 +24°C° 0 mm 3 m/s 689 mmHg 26%
    16:00 +22°C° 0 mm 3 m/s 689 mmHg 29%
    17:00 +22°C° 0 mm 3 m/s 689 mmHg 32%
    18:00 +21°C° 0 mm 3 m/s 689 mmHg 35%
    19:00 +19°C° 0 mm 3 m/s 689 mmHg 41%
    20:00 +18°C° 0 mm 2 m/s 689 mmHg 46%
    21:00 +16°C° 0 mm 2 m/s 689 mmHg 52%
    22:00 +15°C° 0 mm 2 m/s 689 mmHg 55%
    23:00 +15°C° 0 mm 2 m/s 689 mmHg 57%
    Arată mai mult